EW9081 Weather Reports


time (UTC)temp
F
wind
direction
speed
knots
gust
knots
rain 1hr
in
rain 24hr
in
rain mn
in
humidity
%
barometer
mb
20260905122720 55 173 0.0 0.0 0.00 0.08 0.00 94 1016.3
20260905122225 55 173 0.0 0.0 0.00 0.08 0.00 94 1016.2
20260905122219 55 173 0.0 0.0 0.00 0.08 0.00 94 1016.3
20260905121835 55 173 0.0 0.0 0.00 0.08 0.00 94 1016.1
20260905121720 55 173 0.0 0.0 0.00 0.08 0.00 94 1016.2
20260905120217 55 173 0.0 0.0 0.00 0.08 0.00 94 1016.1
20260905115717 55 173 0.0 0.0 0.00 0.09 0.00 94 1016.2
20260905115217 55 172 0.0 0.0 0.00 0.09 0.00 94 1016.2
20260905114717 55 172 0.0 0.0 0.00 0.09 0.00 94 1016.2
20260905114218 55 172 0.0 0.0 0.00 0.09 0.00 93 1016.1
20260905113718 55 172 0.0 1.7 0.00 0.09 0.00 94 1016.1
20260905113217 55 172 0.0 1.7 0.00 0.09 0.00 93 1016.1
20260905112717 56 172 0.0 1.7 0.00 0.09 0.00 93 1016.1
20260905112218 56 172 0.0 1.7 0.00 0.09 0.00 93 1016.1
20260905111717 56 172 0.0 0.0 0.00 0.09 0.00 94 1016.0
20260905111219 56 172 0.0 1.7 0.00 0.09 0.00 94 1016.0
20260905111215 56 172 0.0 1.7 0.00 0.09 0.00 94 1016.0
20260905110215 56 172 0.0 1.7 0.00 0.09 0.00 94 1016.0
20260905105715 56 172 0.0 1.7 0.00 0.09 0.00 94 1016.0
20260905105215 56 172 0.0 1.7 0.00 0.09 0.00 93 1016.1
20260905104723 56 172 0.0 1.7 0.00 0.09 0.00 94 1016.1
20260905104716 56 172 0.0 1.7 0.00 0.09 0.00 93 1016.1
20260905104215 56 172 0.0 1.7 0.00 0.09 0.00 94 1016.1
20260905103717 56 172 0.0 1.7 0.00 0.09 0.00 94 1016.1
20260905102715 56 165 0.0 1.7 0.00 0.09 0.00 94 1016.1
20260905102218 56 165 0.0 2.6 0.00 0.09 0.00 94 1016.1
20260905102214 56 165 0.0 2.6 0.00 0.09 0.00 94 1016.1
20260905101214 56 167 0.0 2.6 0.00 0.09 0.00 94 1016.1
20260905100714 56 171 0.0 2.6 0.00 0.09 0.00 94 1016.1
20260905100219 56 140 0.0 1.7 0.00 0.10 0.00 94 1016.1
20260905100213 56 140 0.0 1.7 0.00 0.09 0.00 94 1016.1
20260905095713 56 140 0.0 1.7 0.00 0.09 0.00 94 1016.2
20260905094713 56 140 0.0 1.7 0.00 0.10 0.00 94 1016.1
20260905094212 56 140 0.0 1.7 0.00 0.10 0.00 94 1016.1
20260905093714 56 140 0.0 1.7 0.00 0.10 0.00 94 1016.1
20260905093217 56 140 0.0 1.7 0.00 0.10 0.00 94 1016.0
20260905093211 56 140 0.0 1.7 0.00 0.10 0.00 94 1016.0
20260905092216 56 140 0.0 1.7 0.00 0.10 0.00 94 1015.9
20260905092212 56 140 0.0 1.7 0.00 0.10 0.00 94 1016.0
20260905091217 56 171 0.0 1.7 0.00 0.11 0.00 94 1015.8
20260905091212 56 140 0.0 1.7 0.00 0.10 0.00 94 1015.9
20260905090711 56 171 0.0 1.7 0.00 0.10 0.00 94 1015.9
20260905085711 56 146 0.0 1.7 0.00 0.11 0.00 94 1015.9
20260905085212 56 145 0.0 1.7 0.00 0.12 0.00 94 1015.9
20260905084716 56 145 0.0 1.7 0.00 0.13 0.00 93 1015.9
20260905084710 56 145 0.0 1.7 0.00 0.13 0.00 93 1015.9
20260905083715 56 145 0.0 1.7 0.00 0.16 0.00 93 1015.8
20260905083711 56 145 0.0 1.7 0.00 0.14 0.00 93 1015.9
20260905082709 56 145 0.0 0.9 0.00 0.17 0.00 93 1015.8
20260905082214 56 145 0.0 1.7 0.00 0.18 0.00 93 1015.8
20260905082210 56 145 0.0 1.7 0.00 0.17 0.00 93 1015.8
20260905081208 56 145 0.0 1.7 0.00 0.18 0.00 93 1015.8
20260905080710 56 145 0.0 1.7 0.00 0.18 0.00 93 1015.8
20260905080206 56 145 0.0 1.7 0.00 0.18 0.00 93 1015.7
20260905075705 56 145 0.0 1.7 0.00 0.18 0.00 93 1015.7
20260905075205 56 145 0.0 1.7 0.00 0.18 0.00 93 1015.6
20260905074705 56 115 0.0 1.7 0.00 0.18 0.00 93 1015.6
20260905074204 56 115 0.0 1.7 0.00 0.18 0.00 93 1015.5
20260905073704 56 115 0.0 1.7 0.00 0.18 0.00 93 1015.6
20260905073203 56 121 0.0 1.7 0.00 0.18 0.00 93 1015.5
20260905072702 56 121 0.0 1.7 0.00 0.18 0.00 93 1015.5
20260905072201 56 121 0.0 1.7 0.00 0.18 0.00 93 1015.5
20260905071701 56 126 0.0 1.7 0.00 0.18 0.00 93 1015.5
20260905071200 56 126 0.0 1.7 0.00 0.18 0.00 93 1015.4
20260905070702 56 126 0.0 1.7 0.00 0.18 0.00 93 1015.4
20260905070200 56 126 0.0 1.7 0.00 0.18 0.00 93 1015.4
20260905065700 56 38 0.0 1.7 0.00 0.18 0.18 93 1015.4
20260905065159 56 38 0.0 1.7 0.00 0.18 0.18 94 1015.4
20260905064657 56 39 0.0 1.7 0.00 0.18 0.18 94 1015.4
20260905064157 56 39 0.0 1.7 0.00 0.18 0.18 94 1015.4
20260905063657 56 42 0.0 1.7 0.00 0.18 0.18 94 1015.4
20260905063157 56 42 0.0 1.7 0.00 0.18 0.18 94 1015.3
20260905062655 56 42 0.0 1.7 0.00 0.18 0.18 94 1015.3
20260905062155 56 42 0.0 0.0 0.00 0.18 0.18 94 1015.4
20260905061656 56 42 0.0 1.7 0.00 0.18 0.18 94 1015.3
20260905061155 56 42 0.0 1.7 0.00 0.18 0.18 94 1015.3
20260905060655 56 42 0.0 0.0 0.00 0.18 0.18 94 1015.2
20260905060156 56 42 0.0 0.0 0.00 0.18 0.18 94 1015.3
20260905055656 55 42 0.0 1.7 0.00 0.18 0.18 94 1015.3
20260905055154 55 42 0.0 1.7 0.00 0.18 0.18 94 1015.3
20260905054653 55 42 0.0 0.0 0.00 0.18 0.18 93 1015.2
20260905054153 55 42 0.0 0.0 0.00 0.18 0.18 93 1015.2
20260905053656 55 42 0.0 0.0 0.00 0.18 0.18 92 1015.3
20260905053652 55 42 0.0 0.0 0.00 0.18 0.18 93 1015.3
20260905052657 56 42 0.0 1.7 0.00 0.18 0.18 92 1015.1
20260905052651 56 42 0.0 1.7 0.00 0.18 0.18 92 1015.1
20260905051651 56 59 0.0 1.7 0.00 0.18 0.18 92 1015.1
20260905051152 56 60 0.0 1.7 0.00 0.18 0.18 92 1015.2
20260905050656 56 59 0.0 0.9 0.00 0.18 0.18 92 1015.2
20260905050651 56 60 0.0 0.9 0.00 0.18 0.18 92 1015.1
20260905045652 56 60 0.0 0.9 0.00 0.18 0.18 92 1015.2
20260905045151 56 60 0.0 0.9 0.00 0.18 0.18 91 1015.2
20260905044648 56 60 0.0 0.9 0.00 0.18 0.18 91 1015.2
20260905044149 56 60 0.0 1.7 0.00 0.19 0.18 91 1015.1
20260905043649 56 60 0.0 1.7 0.00 0.19 0.18 91 1015.1
20260905043149 56 60 0.0 1.7 0.00 0.20 0.18 91 1015.0
20260905042649 56 60 0.0 1.7 0.00 0.20 0.18 91 1014.9
20260905042155 56 15 0.0 1.7 0.00 0.21 0.18 92 1014.9
20260905042149 56 40 0.0 1.7 0.00 0.21 0.18 91 1014.9
20260905041149 57 15 0.0 1.7 0.00 0.22 0.18 92 1014.8
20260905040649 57 15 0.0 0.0 0.00 0.22 0.18 92 1014.7
20260905040149 57 15 0.0 0.9 0.00 0.22 0.18 92 1014.7
20260905035647 57 15 0.0 0.9 0.00 0.22 0.18 92 1014.7
20260905035147 57 15 0.0 0.9 0.00 0.23 0.18 92 1014.6
20260905034646 57 15 0.0 1.7 0.00 0.23 0.18 92 1014.6
20260905034148 57 15 0.0 1.7 0.00 0.23 0.18 92 1014.6
20260905033651 57 15 0.0 1.7 0.00 0.23 0.18 92 1014.5
20260905033647 57 15 0.0 1.7 0.00 0.23 0.18 92 1014.6
20260905032647 57 15 0.0 1.7 0.00 0.24 0.18 92 1014.5
20260905032148 57 15 0.0 0.0 0.00 0.24 0.18 92 1014.4
20260905031648 58 15 0.0 0.0 0.00 0.25 0.18 92 1014.3
20260905031147 58 15 0.0 1.7 0.00 0.25 0.18 92 1014.2
20260905030646 58 15 0.0 1.7 0.00 0.25 0.18 92 1014.1
20260905030150 58 15 0.0 1.7 0.00 0.25 0.18 92 1014.2
20260905030145 58 15 0.0 1.7 0.00 0.25 0.18 92 1014.2
20260905025146 58 15 0.0 1.7 0.00 0.25 0.18 91 1014.1
20260905024644 58 15 0.0 0.0 0.00 0.25 0.18 91 1014.1
20260905024146 58 15 0.0 0.0 0.00 0.25 0.18 91 1014.1
20260905023644 58 15 0.0 0.0 0.00 0.25 0.18 91 1014.1
20260905023145 58 15 0.0 0.0 0.00 0.25 0.18 91 1014.0
20260905022650 58 15 0.0 1.7 0.00 0.25 0.18 91 1014.0
20260905022645 58 15 0.0 1.7 0.00 0.25 0.18 91 1014.1
20260905021647 58 15 0.0 1.7 0.00 0.25 0.18 90 1014.0
20260905021643 58 15 0.0 1.7 0.00 0.25 0.18 91 1014.0
20260905020644 58 15 0.0 1.7 0.00 0.25 0.18 90 1013.9
20260905020142 59 15 0.0 1.7 0.00 0.25 0.18 90 1013.9
20260905015644 59 15 0.0 1.7 0.00 0.25 0.18 90 1014.0
20260905015141 59 15 0.0 2.6 0.00 0.25 0.18 91 1014.0
20260905014641 59 15 0.0 2.6 0.00 0.25 0.18 91 1014.0
20260905014140 59 27 0.9 3.5 0.00 0.26 0.18 91 1014.0
20260905013641 59 23 0.9 3.5 0.00 0.26 0.18 91 1014.0
20260905013142 59 22 0.0 2.6 0.00 0.26 0.18 91 1013.9
20260905012638 59 189 0.0 2.6 0.00 0.27 0.18 91 1014.0
20260905012139 59 189 0.0 2.6 0.00 0.29 0.18 91 1013.9
20260905011638 59 65 0.0 1.7 0.00 0.30 0.18 91 1013.9
20260905011145 58 72 0.0 1.7 0.00 0.31 0.18 91 1013.8
20260905011139 58 65 0.0 1.7 0.00 0.31 0.18 91 1013.8
20260905010639 58 67 0.0 1.7 0.00 0.31 0.18 91 1013.8
20260905005639 58 9 0.0 1.7 0.00 0.31 0.18 91 1013.7
20260905005139 58 9 0.0 2.6 0.00 0.31 0.18 91 1013.7
20260905004643 58 267 0.9 1.7 0.00 0.31 0.18 90 1013.5
20260905004638 58 9 0.0 2.6 0.00 0.31 0.18 91 1013.5
20260905003639 58 283 0.9 4.3 0.01 0.31 0.18 90 1013.5
20260905003139 58 38 0.9 4.3 0.01 0.31 0.18 90 1013.5
20260905002638 59 73 0.9 7.0 0.01 0.31 0.18 90 1013.4
20260905002138 59 33 1.7 7.0 0.01 0.31 0.18 90 1013.3
20260905001639 59 15 0.9 5.2 0.01 0.31 0.18 90 1013.3
20260905001144 60 350 0.9 7.0 0.02 0.32 0.18 89 1013.2
20260905001139 59 9 0.9 5.2 0.01 0.31 0.18 89 1013.3
20260905000144 60 351 2.6 4.3 0.02 0.34 0.18 89 1012.9
20260905000138 60 128 1.7 7.0 0.02 0.33 0.18 89 1013.1
20260904235140 60 30 2.6 4.3 0.02 0.34 0.18 88 1013.0
20260904234639 60 28 2.6 4.3 0.02 0.35 0.18 89 1012.9
20260904234139 60 15 1.7 4.3 0.02 0.35 0.18 89 1012.9
20260904233639 60 15 0.9 3.5 0.01 0.35 0.17 90 1012.9
20260904233138 60 10 0.9 3.5 0.01 0.35 0.17 91 1012.9
20260904232638 60 43 0.9 3.5 0.01 0.35 0.17 89 1012.9
20260904232144 61 17 0.0 2.6 0.01 0.35 0.17 88 1013.0
20260904232138 61 20 0.9 3.5 0.01 0.35 0.17 89 1013.0
20260904231753 61 57 0.0 1.7 0.01 0.35 0.17 87 1013.0
20260904230640 61 63 0.9 2.6 0.00 0.34 0.16 85 1012.9
20260904230143 62 37 0.9 5.2 0.00 0.34 0.16 84 1012.9
20260904230139 62 76 0.9 5.2 0.00 0.34 0.16 85 1012.9
20260904225140 62 253 0.9 5.2 0.00 0.34 0.16 84 1012.8
20260904224640 62 5 1.7 7.0 0.00 0.34 0.16 84 1012.8
20260904224138 63 5 1.7 7.0 0.00 0.34 0.16 86 1012.8
20260904223637 63 23 0.9 5.2 0.00 0.34 0.16 83 1012.8
20260904223136 63 19 1.7 5.2 0.00 0.34 0.16 85 1012.8
20260904222637 63 9 1.7 4.3 0.00 0.34 0.16 85 1012.8
20260904222136 64 196 1.7 4.3 0.01 0.34 0.16 85 1012.8
20260904221640 63 13 0.9 4.3 0.02 0.34 0.16 87 1012.8
20260904221635 64 175 1.7 4.3 0.01 0.34 0.16 88 1012.7
20260904220635 62 339 0.9 3.5 0.02 0.34 0.16 89 1012.8
20260904220139 62 148 1.7 4.3 0.02 0.34 0.16 87 1012.8
20260904220135 62 17 1.7 3.5 0.02 0.34 0.16 87 1012.7
20260904215139 61 76 0.9 2.6 0.02 0.34 0.16 90 1012.9
20260904215135 62 24 0.9 4.3 0.02 0.34 0.16 90 1012.8
20260904214634 61 166 0.9 2.6 0.02 0.34 0.16 90 1012.9
20260904213633 60 37 0.9 3.5 0.02 0.34 0.16 91 1012.9
20260904213133 60 28 0.9 4.3 0.02 0.34 0.16 92 1012.8
20260904212631 60 10 0.9 4.3 0.02 0.34 0.16 91 1012.8
20260904212130 60 14 0.9 4.3 0.01 0.33 0.15 89 1012.9
20260904211130 60 74 0.9 3.5 0.00 0.32 0.14 89 1012.8
20260904210630 60 35 0.9 4.3 0.01 0.32 0.14 89 1012.8
20260904210130 60 36 0.9 4.3 0.01 0.32 0.14 88 1012.7
20260904205630 60 89 0.9 7.0 0.01 0.32 0.14 88 1012.8
20260904205128 60 175 0.9 7.0 0.02 0.32 0.14 88 1012.7
20260904204627 61 169 1.7 6.1 0.02 0.32 0.14 86 1012.7
20260904204127 61 187 1.7 7.0 0.02 0.32 0.14 85 1012.7
20260904203628 62 153 1.7 7.0 0.03 0.32 0.14 87 1012.7
20260904203124 62 180 1.7 4.3 0.03 0.32 0.14 92 1012.6
20260904202625 61 165 0.9 4.3 0.03 0.32 0.14 90 1012.6
20260904202125 60 121 0.0 3.5 0.03 0.32 0.14 89 1012.6
20260904201624 60 158 0.0 1.7 0.03 0.33 0.14 89 1012.6
20260904201124 60 172 0.0 1.7 0.03 0.33 0.14 89 1012.7
20260904200624 60 172 0.0 4.3 0.02 0.32 0.13 88 1012.8
20260904200124 59 173 0.9 4.3 0.02 0.32 0.13 88 1012.8
20260904195625 60 175 0.9 5.2 0.02 0.32 0.13 86 1012.7
20260904195125 60 107 0.9 5.2 0.01 0.31 0.12 84 1012.7
20260904194625 60 202 0.9 6.1 0.01 0.31 0.12 86 1012.7
20260904194124 61 167 0.9 6.1 0.01 0.31 0.12 84 1012.6
20260904193624 61 163 0.9 6.1 0.00 0.30 0.11 82 1012.7
20260904193124 62 190 0.9 6.1 0.00 0.30 0.11 82 1012.5
20260904192624 61 160 0.9 3.5 0.00 0.30 0.11 85 1012.6
20260904192124 61 130 0.9 3.5 0.00 0.31 0.11 82 1012.5
20260904191623 61 84 0.9 3.5 0.00 0.31 0.11 84 1012.6
20260904191128 60 171 0.9 3.5 0.00 0.32 0.11 89 1012.6
20260904191122 61 170 0.9 3.5 0.00 0.32 0.11 86 1012.6
20260904190122 59 334 0.9 2.6 0.00 0.32 0.11 87 1012.6
20260904185622 59 0 0.0 1.7 0.00 0.33 0.11 88 1012.7
20260904185128 59 5 0.0 2.6 0.00 0.34 0.11 89 1012.6
20260904185124 59 5 0.0 2.6 0.00 0.34 0.11 89 1012.6
20260904184122 59 39 0.0 1.7 0.00 0.34 0.11 90 1012.6
20260904183623 59 39 0.0 1.7 0.00 0.35 0.11 90 1012.6
20260904183127 59 22 0.9 4.3 0.00 0.37 0.11 89 1012.6
20260904183123 59 38 0.0 1.7 0.00 0.36 0.11 89 1012.6
20260904182736 59 11 0.9 4.3 0.00 0.38 0.11 92 1012.5
20260904181619 58 28 0.9 4.3 0.00 0.39 0.11 90 1012.4
20260904181120 58 19 0.9 4.3 0.00 0.39 0.11 91 1012.4
20260904180621 58 18 0.9 2.6 0.00 0.39 0.11 91 1012.4
20260904180124 58 162 0.9 2.6 0.00 0.39 0.11 92 1012.4
20260904180120 58 24 0.9 2.6 0.00 0.39 0.11 91 1012.5
20260904175120 58 35 0.0 2.6 0.00 0.39 0.11 91 1012.3
20260904174625 57 348 0.9 2.6 0.00 0.39 0.11 93 1012.3
20260904174120 57 79 0.9 2.6 0.00 0.39 0.11 93 1012.3
20260904173619 57 69 0.0 2.6 0.00 0.39 0.11 92 1012.2
20260904173118 57 125 0.9 4.3 0.00 0.39 0.11 92 1012.3
20260904172617 57 35 0.9 4.3 0.00 0.39 0.11 91 1012.2
20260904172119 57 163 0.9 3.5 0.00 0.39 0.11 92 1012.2
20260904171618 57 283 0.0 2.6 0.00 0.40 0.11 93 1012.2
20260904171118 57 69 0.0 2.6 0.00 0.40 0.11 93 1012.1
20260904170619 57 19 0.9 3.5 0.00 0.40 0.11 93 1012.0
20260904170122 56 44 0.9 3.5 0.00 0.40 0.11 94 1012.0
20260904170117 57 31 0.9 3.5 0.00 0.40 0.11 94 1012.0
20260904165118 56 28 0.9 3.5 0.00 0.40 0.11 94 1011.9
20260904164617 56 355 0.9 3.5 0.00 0.40 0.11 94 1011.8
20260904164116 56 343 0.9 3.5 0.00 0.40 0.11 94 1011.8
20260904163617 56 32 0.9 2.6 0.00 0.40 0.11 95 1011.8
20260904163116 56 28 0.9 2.6 0.00 0.40 0.11 94 1011.8
20260904162617 56 49 0.0 2.6 0.00 0.40 0.11 94 1011.8
20260904162116 56 9 0.0 2.6 0.00 0.40 0.11 95 1011.8
20260904161627 55 223 0.0 2.6 0.00 0.41 0.11 95 1011.9
20260904161621 56 10 0.9 2.6 0.00 0.40 0.11 95 1011.9
20260904161115 56 22 0.9 2.6 0.00 0.40 0.11 95 1011.8
20260904160615 56 9 0.9 2.6 0.00 0.41 0.11 95 1011.8
20260904155615 55 22 0.0 2.6 0.00 0.41 0.11 95 1011.9
20260904155112 55 69 0.9 2.6 0.00 0.41 0.11 95 1011.9
20260904154612 55 45 0.9 3.5 0.00 0.42 0.11 95 1011.8
20260904154113 55 123 0.9 3.5 0.00 0.44 0.11 95 1011.8
20260904153613 55 344 0.9 3.5 0.00 0.44 0.11 95 1011.7
20260904153111 55 5 0.9 3.5 0.00 0.44 0.11 95 1011.7
20260904152609 55 22 0.9 3.5 0.00 0.45 0.11 95 1011.6
20260904152110 54 326 0.9 3.5 0.00 0.46 0.11 95 1011.6
20260904151611 54 331 0.9 3.5 0.00 0.46 0.11 95 1011.5
20260904151109 54 22 0.9 3.5 0.00 0.46 0.11 95 1011.5
20260904150608 54 67 0.0 2.6 0.00 0.47 0.11 95 1011.5
20260904150108 54 346 0.0 2.6 0.00 0.47 0.11 95 1011.4
20260904145609 54 333 0.9 3.5 0.00 0.48 0.11 95 1011.4
20260904145107 54 42 0.9 3.5 0.00 0.51 0.11 95 1011.3
20260904144609 54 26 0.9 2.6 0.00 0.52 0.11 95 1011.3
20260904144108 53 172 0.0 2.6 0.00 0.54 0.11 95 1011.2
20260904143609 53 69 0.0 2.6 0.00 0.54 0.11 95 1011.2
20260904143108 53 61 0.9 2.6 0.00 0.54 0.11 95 1011.2
20260904142608 53 16 0.9 2.6 0.00 0.54 0.11 95 1011.1
20260904142109 53 28 0.0 2.6 0.00 0.55 0.11 95 1011.0
20260904141608 53 103 0.9 2.6 0.00 0.57 0.11 95 1011.0
20260904141108 53 350 0.9 2.6 0.00 0.58 0.11 95 1010.8
20260904140607 53 13 0.0 2.6 0.00 0.59 0.11 95 1010.7
20260904140109 53 355 0.0 1.7 0.00 0.59 0.11 95 1010.7
20260904135609 53 13 0.0 1.7 0.00 0.59 0.11 95 1010.7
20260904135108 53 12 0.0 2.6 0.00 0.60 0.11 95 1010.7
20260904134607 53 5 0.0 2.6 0.01 0.62 0.11 95 1010.7
20260904134108 53 5 0.0 1.7 0.01 0.62 0.11 95 1010.7
20260904133608 53 25 0.9 2.6 0.01 0.63 0.11 95 1010.5
20260904133109 53 20 0.9 2.6 0.01 0.63 0.11 95 1010.4
20260904132613 53 26 0.0 3.5 0.01 0.63 0.11 95 1010.4
20260904132609 53 5 0.9 2.6 0.01 0.63 0.11 95 1010.4
20260904131607 53 34 0.9 3.5 0.01 0.63 0.11 95 1010.3
20260904131109 53 0 0.0 2.6 0.01 0.63 0.11 95 1010.3
20260904130607 53 0 0.9 3.5 0.01 0.63 0.11 95 1010.3
20260904130105 53 24 0.9 3.5 0.01 0.63 0.11 95 1010.3
20260904125611 53 173 0.0 1.7 0.01 0.63 0.10 95 1010.1
20260904125605 53 36 0.9 3.5 0.02 0.63 0.11 95 1010.2
20260904125105 53 16 0.9 3.5 0.02 0.63 0.11 95 1010.2
20260904124604 53 178 0.0 1.7 0.01 0.63 0.10 95 1010.2
20260904123603 53 18 0.0 1.7 0.01 0.63 0.10 95 1010.1
20260904123101 53 34 0.0 1.7 0.01 0.63 0.10 95 1010.1